Tracking 29892 objects as of 21-Nov-2024
HD Live streaming from Space Station
objects crossing your sky now

DELTA 1 DEB

Track DELTA 1 DEB now!
10-day predictions


NORAD ID: 18671
Int'l Code: 1973-086GZ
Perigee: 1,424.2 km
Apogee: 1,606.0 km
Inclination: 101.8 °
Period: 116.2 minutes
Semi major axis: 7886 km
RCS: 0.0238 m2 (small)
Launch date: November 6, 1973
Source: United States (US)
Launch site: AIR FORCE WESTERN TEST RANGE (AFWTR)

Note: This is SATELLITE DEBRIS
Your satellite tracking list
Your tracking list is empty




NASA's NSSDC Master Catalog

Two Line Element Set (TLE):
1 18671U 73086GZ  24325.42147127  .00000189  00000-0  17094-2 0  9992
2 18671 101.7931 286.7448 0115298   7.9738 149.9889 12.39678262565321
Source of the keplerian elements: AFSPC